Location: Ajisawe
(8.4333°N, 4.3833°E)
Time: 01:42:40
(UTC+00:00)

Courier 1B Rocket - Pass Details

Date: 27 April 2021
Orbit: 920 x 1202 km, 28.3° (Epoch: 13 May)

Event Time Altitude Azimuth Distance (km) Brightness Sun altitude
Rises 13:34:34 0° 246° (WSW) 3,649 8.3 61.4°
Reaches altitude 10° 13:37:16 10° 248° (WSW) 2,670 7.8 60.8°
Maximum altitude 13:43:39 71° 332° (NNW) 971 6.6 59.2°
Drops below altitude 10° 13:49:50 10° 56° (NE) 2,600 7.1 57.7°
Sets 13:52:27 0° 58° (ENE) 3,547 7.7 57.1°
